Content
SEND FEEDBACK

Daily
Averages
Monthly
Summary
United States of America

DES PLAINES, ILLINOIS


Home > North America > United States > Illinois
Elevation: 651 feet     Latitude: 42 00N     Longitude: 087 54W

WEATHER
 
SELECT A DAY
Number of Records: 197,222;   Date Range: 7/8/95 - 9/29/14
 
SHARE

PRINT THIS DATA

[ ← Previous Day ]
WEATHER ALMANAC - JUNE 21, 2013
[ Next Day → ]
[ °C ]   °F
Weather ElementAverageHighLow
Temperature72.8 °F82.9 °F (10:52 am)66.9 °F (4:52 am)
Dewpoint64.5 °F66.2 °F (12:55 pm)60.1 °F (4:52 am)
Humidity75.9 %90 % (1:52 pm)56 % (10:52 am)
Barometer30.09 in30.19 in (12:55 pm)29.90 in (3:52 pm)
Wind Speed7.2 mph26.5 mph (12:23 pm)
Wind Gust33.4 mph (12:23 pm)
Weather ElementAverage
Visibility8.5 mi
Wind DirectionESE (127.7 °)

Weather ElementTotal
Precipitation0.85 in
Cooling Degree Days9.9 (Base 65)
Growing Degree Days24.9 (Base 50)
Averaged from 30 records on June 21, 2013
WEATHER CONDITIONS BREAKOUT
WIND DIRECTION BREAKOUT
WEATHER BY HOUR - JUNE 21, 2013
[ °C ]   °F
Local TimeTemperatureDewpointHumidityBarometerVisibilityWind DirectionWind SpeedGust SpeedPrecipitationEventsConditions
1:52 AM69.1 °F62.1 °F78 %30.10 in9.0 miCalmClear
2:52 AM68.0 °F61.0 °F78 %30.09 in9.0 miSouth (170°)5.8 mphClear
3:52 AM68.0 °F61.0 °F78 %30.09 in9.0 miSouth (170°)4.6 mphClear
4:52 AM66.9 °F60.1 °F79 %30.10 in9.0 miSSE (150°)3.5 mphClear
5:52 AM69.1 °F61.0 °F75 %30.10 in9.0 miSouth (170°)3.5 mphClear
6:52 AM73.0 °F62.1 °F68 %30.08 in10.0 miSouth (180°)9.2 mphClear
7:52 AM78.1 °F63.0 °F60 %30.10 in10.0 miSouth (190°)10.4 mphClear
8:52 AM80.1 °F64.9 °F60 %30.08 in10.0 miSouth (180°)13.8 mphClear
9:52 AM82.0 °F66.0 °F58 %30.08 in10.0 miSouth (190°)13.8 mph19.6 mphClear
10:52 AM82.9 °F66.0 °F56 %30.09 in10.0 miSouth (190°)12.7 mphClear
11:52 AM82.0 °F66.0 °F58 %30.12 in10.0 miSW (220°)9.2 mphMostly Cloudy
12:23 PM75.2 °F64.4 °F69 %30.18 in10.0 miNW (320°)26.5 mph33.4 mphThunderstormOvercast
12:30 PM73.4 °F64.4 °F73 %30.18 in10.0 miNNW (330°)17.3 mph33.4 mphThunderstormOvercast
12:52 PM70.0 °F66.0 °F87 %30.18 in1.2 miCalm0.06 inRain-ThunderstormThunderstorms and Rain
12:55 PM69.8 °F66.2 °F88 %30.19 in0.8 miCalm0.04 inRain-ThunderstormHeavy Thunderstorms and Rain
1:06 PM69.8 °F66.2 °F88 %30.18 in1.2 miSouth (170°)6.9 mph0.14 inRain-ThunderstormThunderstorms and Rain
1:11 PM69.8 °F66.2 °F88 %30.18 in3.0 miSouth (180°)5.8 mph0.14 inRain-ThunderstormLight Thunderstorms and Rain
1:49 PM69.8 °F66.2 °F88 %30.15 in7.0 miSSE (160°)8.1 mph0.19 inRain-ThunderstormLight Rain
1:52 PM69.1 °F66.0 °F90 %30.14 in8.0 miSouth (170°)6.9 mph0.20 inRain-ThunderstormLight Rain
2:43 PM69.8 °F66.2 °F88 %30.09 in10.0 miSouth (180°)17.3 mph0.04 inRainLight Rain
2:52 PM70.0 °F66.0 °F87 %30.02 in10.0 miSouth (170°)21.9 mph27.6 mph0.04 inRainLight Rain
3:52 PM73.9 °F62.1 °F66 %29.90 in10.0 miCalm0.00 inClear
4:52 PM77.0 °F63.0 °F62 %29.98 in10.0 miCalmClear
5:52 PM73.9 °F64.9 °F73 %30.02 in10.0 miNNE (30°)6.9 mphClear
6:52 PM73.0 °F64.9 °F76 %30.02 in10.0 miCalmClear
7:52 PM73.0 °F66.0 °F79 %30.02 in10.0 miSE (130°)4.6 mphClear
8:52 PM72.0 °F66.0 °F81 %30.03 in10.0 miCalmClear
9:52 PM71.1 °F66.0 °F84 %30.06 in10.0 miCalmClear
10:52 PM71.1 °F66.0 °F84 %30.06 in10.0 miCalmScattered Clouds
11:52 PM73.0 °F66.0 °F79 %30.03 in10.0 miSouth (180°)6.9 mphMostly Cloudy
Hourly data recorded from KPWK, located miles away from Des Plaines, Illinois







STORIES FROM OUR PARTNERS